Theta_e
362 365 368 369 368 366 365 364 363 362 361 361 360 360 362 361 363 364 364 364 365 364 364 362 359 358 357 357 359 359 359 358 357 353 354 355 356 358 358 360 359 353 357
364 364 368 368 368 366 365 364 363 362 362 361 361 362 361 362 363 363 364 365 364 365 363 361 359 358 357 355 356 359 358 357 355 356 354 355 356 357 360 358 356 353 352
362 364 363 368 368 366 364 363 362 362 362 362 361 361 361 362 364 363 364 364 364 364 363 361 359 358 357 355 356 358 356 355 359 362 359 356 350 358 358 354 351 349 348
364 363 363 367 367 366 364 362 362 362 362 362 361 361 362 362 363 364 364 364 364 364 362 360 358 357 357 355 354 354 353 357 360 362 356 359 353 357 354 352 349 346 344
367 364 366 367 367 365 364 362 362 362 362 362 362 362 362 363 363 364 364 364 364 362 360 359 357 358 356 355 355 355 355 358 360 356 349 354 351 351 350 347 344 343 342
365 365 364 366 366 365 364 363 362 362 363 362 362 362 362 363 363 364 364 363 363 362 360 357 357 357 356 355 355 354 355 357 357 346 351 351 348 352 349 346 343 341 340
364 365 363 365 366 365 365 364 362 362 362 362 362 362 362 362 363 364 364 363 362 361 359 357 357 356 356 354 353 353 354 356 348 343 352 348 347 349 346 343 342 340 339
365 366 364 365 365 364 364 363 362 361 361 362 361 361 362 362 363 363 363 363 361 360 358 357 356 355 354 353 353 353 353 355 346 340 350 347 348 348 344 342 340 339 338
364 365 364 362 363 364 363 362 362 361 361 361 360 361 361 362 362 362 362 362 361 359 357 356 354 353 352 352 352 352 353 355 347 341 350 345 349 346 343 341 340 338 338
360 363 362 363 359 360 360 361 362 361 360 360 361 361 361 361 362 362 360 361 360 359 356 355 353 352 351 351 352 352 353 355 344 346 347 345 348 344 343 341 339 337 337
358 360 361 358 356 356 357 360 361 362 361 361 361 361 359 355 357 359 357 359 358 357 355 354 352 351 350 350 351 351 353 343 338 348 344 349 348 343 342 340 338 337 337
354 358 358 357 355 353 353 360 359 359 359 358 357 359 353 350 352 353 356 359 358 356 354 353 352 351 348 338 340 349 344 339 339 348 344 349 347 343 341 339 338 337 336
348 358 358 358 356 352 350 358 357 357 358 358 357 356 353 350 351 351 356 353 353 353 347 348 347 344 339 336 338 339 338 338 349 345 346 348 346 342 341 339 337 336 336
338 355 358 359 354 354 352 354 352 353 355 356 356 357 352 353 349 349 353 351 349 347 344 343 341 341 340 340 339 343 341 347 349 344 345 347 346 342 340 338 337 335 334
326 346 355 358 358 351 353 352 349 350 350 352 354 358 354 352 348 350 353 351 348 347 344 345 343 342 341 341 341 343 344 348 348 344 342 348 345 343 340 338 336 334 332
330 331 343 357 358 359 354 352 349 351 349 349 350 355 354 351 352 352 354 350 347 347 345 347 345 346 342 340 343 347 349 350 349 345 341 343 344 343 342 337 334 332 331
332 333 336 357 359 355 359 355 351 352 350 349 350 355 351 355 357 354 350 351 353 351 351 348 349 344 342 342 344 348 345 353 351 348 346 338 340 343 341 339 334 332 331
331 336 339 331 359 356 351 357 355 352 352 350 351 354 350 355 358 354 349 352 354 352 348 345 343 341 341 343 347 349 352 351 353 350 344 341 336 334 341 339 337 334 330
329 335 338 340 342 357 355 350 355 355 354 352 354 353 351 352 353 350 352 352 358 349 349 345 344 344 344 347 350 352 350 350 350 350 348 343 339 334 334 339 338 338 332
329 338 341 341 343 353 359 355 350 354 353 356 352 351 351 350 350 351 351 351 352 349 348 346 346 346 348 346 344 347 350 351 352 348 347 345 341 334 331 332 333 333 336
326 336 335 341 343 344 354 354 348 345 349 352 351 356 351 350 349 353 350 354 348 347 349 350 351 350 348 350 346 346 346 346 345 343 343 342 342 336 335 336 331 330 330
329 332 340 339 345 347 354 355 354 349 349 350 352 352 352 350 351 352 350 350 348 347 354 352 351 346 350 351 342 341 334 337 340 338 337 334 334 334 334 332 330 328 328
325 334 336 338 342 344 351 355 355 356 350 347 346 349 352 352 352 353 351 348 351 350 350 354 354 350 342 348 347 340 331 328 332 334 332 333 331 332 331 329 328 326 324
322 326 334 338 339 343 344 351 351 348 345 344 347 345 351 352 353 353 350 355 354 350 352 351 354 352 346 340 346 344 343 339 329 323 330 330 329 329 328 326 326 324 323
321 322 332 334 339 339 343 347 351 350 348 350 349 344 348 352 354 351 350 351 356 351 352 351 351 351 350 343 340 341 339 338 337 329 323 325 328 326 327 325 323 321 320
320 321 322 333 338 342 349 346 352 350 349 347 346 344 344 348 350 350 349 349 354 353 353 351 353 349 346 347 342 338 335 330 327 325 321 320 321 324 325 326 322 317 315
Wind_Speed
11 16 15 16 17 16 17 18 18 16 15 14 15 15 13 12 14 15 15 16 14 13 12 12 10 10 10 11 12 13 11 8 4 3 6 9 8 8 12 15 18 14 14
17 18 16 17 16 16 16 16 19 17 15 15 16 15 14 13 13 14 15 14 14 13 12 12 11 11 10 10 10 9 7 3 4 2 3 6 9 11 13 17 16 14 16
19 16 18 15 16 17 17 15 17 18 16 15 15 16 15 14 14 13 14 13 13 13 12 12 10 10 10 9 8 7 3 3 10 2 2 4 9 13 16 17 16 16 15
18 14 15 14 16 15 17 16 16 17 16 16 15 16 16 15 13 14 14 14 13 12 11 11 10 10 10 8 7 4 3 9 10 6 6 5 10 15 18 16 16 15 15
17 15 15 13 14 16 16 16 16 18 16 16 16 14 15 15 14 13 14 14 14 14 12 11 11 9 9 8 6 4 6 10 9 10 8 9 10 14 19 16 14 15 14
18 18 19 15 13 15 17 16 16 16 17 17 15 15 14 13 12 12 12 13 13 13 12 11 10 8 8 6 5 4 7 9 9 10 1 14 12 17 17 15 14 14 13
14 16 16 18 14 14 16 16 16 17 17 16 16 15 15 14 13 12 12 12 12 12 11 11 10 8 7 6 4 4 7 11 8 10 13 12 13 17 16 14 13 12 12
12 13 12 17 16 13 15 16 16 17 17 17 16 16 15 13 12 10 11 11 11 11 10 10 8 7 5 4 4 5 8 11 10 9 13 11 15 18 16 13 12 11 11
12 11 11 13 13 14 13 15 16 16 16 17 16 15 15 14 12 11 10 10 10 10 9 7 7 6 6 5 5 6 8 11 8 4 11 9 15 18 17 13 11 10 11
7 11 11 11 14 12 11 16 16 17 17 16 16 16 16 14 12 10 9 9 9 9 9 8 7 6 6 5 5 7 9 13 9 5 8 9 18 15 17 13 10 9 10
10 8 11 14 14 13 14 12 15 16 17 16 15 15 13 9 11 13 12 13 9 8 7 7 7 6 6 6 6 7 10 6 9 8 6 20 19 16 17 13 10 9 9
14 13 9 9 14 14 12 13 12 12 10 10 11 12 9 10 10 12 12 14 11 9 8 7 7 6 6 5 5 10 5 8 4 7 8 16 17 15 17 12 10 8 8
14 10 9 8 10 16 12 10 7 8 7 8 12 11 9 8 9 7 6 6 6 8 5 6 5 5 7 7 5 7 8 8 6 6 10 17 18 14 16 11 9 8 7
9 14 12 6 8 9 9 11 9 9 9 8 10 13 8 5 8 7 7 9 7 6 7 7 6 7 8 9 8 7 8 5 6 6 9 14 15 15 13 10 8 6 5
7 7 15 7 4 10 6 11 11 10 10 11 11 13 10 8 9 7 8 9 9 9 8 7 7 8 7 5 5 6 5 2 11 7 6 15 14 14 12 10 8 5 4
6 7 4 13 8 11 6 10 7 10 11 10 11 12 13 8 8 7 5 7 9 8 9 6 5 4 1 4 6 6 4 4 13 12 6 5 11 10 10 10 7 6 3
8 9 7 9 11 12 11 7 10 11 11 10 10 13 14 9 9 7 5 5 4 5 5 5 4 3 4 5 6 6 1 8 8 8 7 6 6 11 10 9 8 6 5
7 10 9 9 13 12 9 8 5 8 9 10 10 11 15 10 8 7 6 5 4 4 3 3 3 4 5 5 4 4 4 5 3 9 6 6 5 5 8 9 9 8 4
9 8 11 9 9 14 14 8 10 6 8 9 8 11 14 11 10 8 5 5 5 4 4 3 3 4 4 4 4 4 5 5 1 4 3 7 6 5 5 9 10 7 4
9 8 11 10 9 7 10 10 9 7 5 5 8 11 15 9 10 8 6 7 5 4 4 4 4 5 4 4 1 5 5 5 4 3 2 1 7 9 8 8 4 5 10
13 8 11 15 11 8 9 8 11 11 5 7 8 11 16 12 11 11 7 7 6 5 5 6 4 3 3 1 4 4 3 4 4 4 4 4 3 3 4 6 4 5 7
10 10 10 10 10 9 8 9 9 11 7 7 4 7 16 15 12 12 9 8 7 6 6 6 5 3 3 3 1 1 3 2 3 3 3 2 5 4 5 9 10 8 5
11 8 10 12 11 9 9 8 7 8 10 10 5 6 13 15 11 12 11 7 9 6 6 6 5 4 4 3 5 3 3 2 3 2 0 3 3 4 4 7 7 7 5
13 12 11 12 11 10 12 10 12 8 11 11 10 5 12 14 11 11 12 6 10 8 5 7 6 4 3 3 3 3 5 4 1 2 2 3 2 4 4 5 6 6 6
15 13 10 14 14 14 14 11 11 10 9 10 7 8 12 10 10 13 12 8 9 7 5 8 6 5 2 2 0 3 4 1 3 0 1 3 2 5 4 5 4 5 6
16 16 14 16 14 15 12 15 12 13 12 9 12 10 9 7 9 12 13 11 9 8 7 8 6 7 4 4 3 4 3 3 2 1 1 1 6 3 4 4 7 5 5
Wind_Direction
122 124 113 117 121 133 135 134 129 131 132 128 124 119 110 105 99 101 104 105 108 109 111 109 103 97 86 76 68 70 75 74 71 108 93 86 76 58 55 41 27 45 40
132 133 116 119 130 135 137 138 133 134 135 134 130 125 122 123 115 114 113 112 114 114 113 114 112 108 100 93 90 85 86 88 248 209 115 126 100 77 63 57 50 47 40
132 132 125 126 136 140 140 142 137 137 140 139 137 134 135 134 124 121 117 114 115 117 116 116 115 110 107 105 103 106 115 245 259 285 255 279 97 78 69 62 54 46 51
123 136 130 132 137 142 142 143 142 140 143 142 143 143 143 141 136 131 127 124 121 123 121 120 122 122 122 122 124 136 229 259 277 322 267 159 88 75 66 78 60 48 43
126 141 125 134 140 143 144 146 147 145 144 146 146 147 146 146 142 137 133 131 133 136 138 135 134 137 138 142 147 183 252 274 308 303 287 117 92 78 71 62 56 55 47
134 132 138 134 141 147 147 149 149 150 145 148 149 150 150 149 143 140 138 138 140 143 144 143 142 147 152 155 172 214 266 289 302 280 200 88 93 85 79 70 63 58 53
116 123 139 134 142 150 149 150 153 155 148 150 154 156 156 153 151 149 146 144 143 144 147 149 150 157 166 169 202 248 283 300 297 284 99 98 96 95 87 77 68 63 58
115 134 142 136 140 149 151 152 158 158 151 153 158 159 156 155 153 150 145 145 146 147 151 151 157 163 171 190 224 268 288 300 312 306 103 104 116 104 95 85 76 69 62
129 133 147 149 148 150 156 157 158 155 154 156 159 158 157 157 157 151 149 147 147 145 148 153 160 171 183 212 244 267 289 295 297 304 116 113 108 107 103 94 85 77 67
143 149 158 161 165 161 169 163 156 154 156 157 158 157 157 155 155 152 145 151 152 153 156 162 174 186 205 219 247 276 289 289 270 31 97 115 117 110 106 101 94 85 70
155 166 174 173 172 172 167 169 153 157 156 157 158 159 155 169 171 166 186 151 159 157 159 176 193 197 220 238 241 254 269 271 277 135 133 137 129 125 110 108 100 85 73
164 166 195 199 172 180 170 155 169 169 171 173 171 169 181 183 178 176 164 154 160 164 174 190 209 215 231 231 213 226 237 249 259 123 130 125 120 125 111 114 106 91 77
170 171 182 232 177 187 178 155 177 165 178 188 183 176 201 192 176 184 138 154 159 175 187 196 203 225 228 231 227 204 222 237 104 111 125 130 126 128 112 115 109 96 84
166 171 191 222 182 218 176 159 179 173 181 185 189 180 204 208 170 182 161 168 176 172 208 187 200 209 230 243 243 233 220 124 110 109 135 141 126 124 120 124 118 108 92
307 161 183 194 233 212 176 166 179 183 184 184 182 181 199 215 168 185 175 177 182 180 204 189 218 202 218 232 289 284 296 320 133 132 137 148 133 129 137 136 136 125 112
213 263 250 187 181 234 202 173 196 185 180 186 182 177 201 209 164 178 211 176 186 188 202 189 198 160 179 236 228 252 243 306 118 126 136 137 138 143 150 149 145 146 135
193 201 224 191 197 211 219 223 196 180 179 187 180 171 195 199 161 171 212 190 210 189 156 164 191 141 169 249 241 207 93 81 115 124 139 138 172 161 162 154 152 172 169
237 179 193 217 191 211 221 226 237 187 186 185 177 170 185 187 169 181 189 179 220 142 145 155 215 160 217 225 233 72 110 66 58 128 132 150 194 159 175 163 179 192 179
221 205 190 200 210 199 217 222 242 255 202 180 179 167 181 186 191 183 191 164 204 151 158 193 210 185 206 252 122 141 134 129 104 99 88 157 158 143 164 191 194 190 110
239 192 174 190 214 214 203 208 229 243 229 179 187 170 175 186 196 178 213 168 162 153 180 190 189 219 213 197 186 82 72 78 75 139 137 65 150 151 176 179 171 120 97
216 225 188 178 195 199 195 210 208 236 227 231 192 171 171 179 194 180 205 149 161 168 199 188 192 224 236 211 128 137 109 108 84 20 58 40 120 155 177 127 90 105 108
212 207 175 178 184 195 199 202 206 207 213 231 230 170 165 178 186 177 197 162 177 182 208 170 175 180 231 115 116 33 147 135 110 86 41 81 59 15 43 94 93 87 134
211 203 177 176 183 202 225 197 211 224 212 225 247 173 171 177 186 176 196 175 170 196 189 149 170 199 207 140 136 127 16 68 117 106 157 83 69 57 39 86 87 83 75
221 206 179 172 184 194 215 196 196 202 202 210 222 231 170 174 186 176 193 189 168 193 193 161 165 172 234 198 121 166 112 105 284 140 149 129 140 113 69 88 92 107 92
205 219 190 179 182 201 201 224 189 199 217 196 207 194 191 180 185 186 184 207 173 186 170 154 161 168 199 153 164 135 98 95 157 347 131 179 196 143 143 100 109 91 69
203 206 219 180 188 190 200 206 192 196 202 212 210 206 194 192 188 187 184 201 171 175 160 155 160 161 172 113 116 98 83 83 102 113 351 43 157 163 140 142 91 77 62